Location: Roc des P�zouls
(43.9667°N, 3.5500°E)
Time: 17:36:54
(UTC+00:00)

Cosmos 1605 Rocket - Pass Details

Date: 14 November 2019
Orbit: 944 x 1006 km, 82.9° (Epoch: 06 December)

Event Time Altitude Azimuth Distance (km) Brightness Sun altitude
Rises 03:58:26 0° 179° (S) 3,669 7.0 -28.9°
Reaches altitude 10° 04:00:58 10° 177° (S) 2,716 6.3 -28.4°
Maximum altitude 04:07:08 72° 95° (E) 1,015 4.1 -27.3°
Drops below altitude 10° 04:13:16 10° 12° (NNE) 2,693 6.4 -26.2°
Sets 04:15:45 0° 11° (N) 3,637 7.1 -25.7°
